Weather History for KP59 - December, 2013

Change the Weather History Date:

Thursday, December 5, 2013

  Actual Average Record
Temperature  
Mean Temperature 27 °F -  
Max Temperature 37 °F 32 °F 54 °F (2001)
Min Temperature 17 °F 24 °F 3 °F (1996)
Degree Days  
Heating Degree Days 38    
Moisture  
Dew Point 19 °F    
Average Humidity 79    
Maximum Humidity 93    
Minimum Humidity 65    
Precipitation  
Precipitation 0.16 in - - ()
Sea Level Pressure  
Sea Level Pressure 29.61 in    
Wind  
Wind Speed 11 mph (NW)    
Max Wind Speed 21 mph    
Max Gust Speed 45 mph    
Averages and records for this station are not official NWS values.
T = Trace of Precipitation, MM = Missing Value Source: NWS Daily Summary

Daily Weather History Graph

Daily Weather History Graph

Search for Another Location

Airport or City:

Trip Planner

Search our weather history database for the weather conditions in past years. The results will help you decide how hot, cold, wet, or windy it might be!

Date:

Astronomy

Dec. 05, 2013 Rise Set
Actual Time 8:23 AM EST 5:01 PM EST
Civil Twilight 7:47 AM EST 5:36 PM EST
Nautical Twilight 7:09 AM EST 6:15 PM EST
Astronomical Twilight 6:31 AM EST 6:52 PM EST
Moon 10:37 AM EST (12/5) 8:28 PM EST (12/5)
Length of Visible Light 9h 48m
Length of Day
8h 37m
Waxing Crescent, 10% of the Moon is Illuminated
Dec 5
Waxing Crescent
Dec 9
First Quarter
Dec 17
Full
Dec 25
Last Quarter
Jan 1
New

Hourly Weather History & Observations

Time (EST) Temp. Windchill Dew Point Humidity Pressure Visibility Wind Dir Wind Speed Gust Speed Precip Events Conditions
12:51 AM 37.0 °F - 35.1 °F 93% 29.30 in - Calm Calm - 0.01 in   Unknown
1:51 AM 37.0 °F 31.6 °F 35.1 °F 93% 29.28 in - WSW 6.9 mph - 0.02 in   Unknown
2:51 AM 36.0 °F 29.6 °F 34.0 °F 93% 29.28 in - West 8.1 mph - N/A   Unknown
3:51 AM 35.1 °F 26.9 °F 30.9 °F 85% 29.31 in - WNW 11.5 mph 27.6 mph N/A   Unknown
4:51 AM 33.1 °F 23.9 °F 30.0 °F 89% 29.32 in - WNW 12.7 mph 32.2 mph N/A   Unknown
5:51 AM 30.0 °F 19.5 °F 26.1 °F 85% 29.37 in - NW 13.8 mph 31.1 mph N/A   Unknown
6:51 AM 28.0 °F 16.1 °F 21.9 °F 78% 29.41 in - WNW 16.1 mph 41.4 mph N/A   Unknown
7:51 AM 27.0 °F 16.7 °F 19.9 °F 75% 29.44 in - WNW 11.5 mph 31.1 mph N/A   Unknown
9:51 AM 24.1 °F 11.5 °F 19.9 °F 84% 29.52 in - WNW 15.0 mph 26.5 mph 0.05 in   Unknown
10:51 AM 23.0 °F 8.3 °F 17.1 °F 78% 29.55 in - NW 19.6 mph 39.1 mph 0.01 in   Unknown
11:51 AM 21.9 °F 8.2 °F 15.1 °F 75% 29.58 in - NW 16.1 mph 35.7 mph 0.01 in   Unknown
12:51 PM 21.9 °F 9.2 °F 12.9 °F 68% 29.61 in - NNW 13.8 mph 33.4 mph N/A   Unknown
1:51 PM 21.0 °F 10.6 °F 16.0 °F 81% 29.65 in - NW 9.2 mph 27.6 mph 0.01 in   Unknown
2:51 PM 21.0 °F 7.6 °F 10.9 °F 65% 29.67 in - NW 15.0 mph 31.1 mph N/A   Unknown
3:51 PM 19.0 °F 4.5 °F 14.0 °F 81% 29.72 in - NW 16.1 mph 28.8 mph N/A   Unknown
4:51 PM 19.0 °F 4.0 °F 12.0 °F 74% 29.76 in - NW 17.3 mph 33.4 mph 0.01 in   Unknown
5:51 PM 19.0 °F 3.2 °F 12.9 °F 77% 29.79 in - NNW 19.6 mph 44.9 mph 0.01 in   Unknown
6:51 PM 19.0 °F 4.5 °F 12.0 °F 74% 29.81 in - NW 16.1 mph 32.2 mph 0.01 in   Unknown
7:51 PM 18.0 °F 4.8 °F 14.0 °F 84% 29.85 in - NW 12.7 mph 35.7 mph 0.01 in   Unknown
8:51 PM 18.0 °F 2.2 °F 9.0 °F 68% 29.89 in - NW 18.4 mph 38.0 mph 0.01 in   Unknown
9:51 PM 17.1 °F 0.1 °F 10.0 °F 74% 29.94 in - NNW 20.7 mph 33.4 mph N/A   Unknown
10:51 PM 18.0 °F 3.6 °F 8.1 °F 65% 29.96 in - NW 15.0 mph 32.2 mph N/A   Unknown
11:51 PM 17.1 °F 3.0 °F 10.9 °F 77% 29.98 in - NW 13.8 mph 29.9 mph N/A   Unknown